Regional Weather Roundup
Issued by NWS

Home | Current Version | Previous Version | Graphics & Text | Print | Product List | Glossary On
Versions: 1 2 3 4 5 6 7 8 9 10 11 12 13 14 15 16 17 18 19 20 21 22 23 24 25 26 27 28 29 30 31 32 33 34 35 36 37 38 39 40 41 42 43 44 45 46 47 48 49 50
761
ASUS45 KBOU 191110
RWRCO

WEATHER ROUNDUP FOR COLORADO
NATIONAL WEATHER SERVICE PUEBLO CO
500 AM MDT THU APR 19 2018

NOTE: "FAIR" INDICATES FEW OR NO CLOUDS BELOW 12000 FEET WITH NO
SIGNIFICANT WEATHER AND/OR OBSTRUCTIONS TO VISIBILITY.

COZ001>005-013-030-031-191200-
...NORTHWEST COLORADO...

CITY           SKY/WX    TMP DP  RH WIND       PRES   REMARKS
CRAIG          PTCLDY    22  18  85 CALM      30.11R
HAYDEN         CLEAR     34  16  47 SE12      30.12S WCI  25
MEEKER         PTCLDY    25  19  78 CALM      30.09F
RABBIT EARS PA NOT AVBL
STEAMBOAT SPGS FAIR      28  15  59 CALM      30.14R
WALDEN         FAIR      19  10  68 SE7       30.19S WCI  10
$$

COZ006>008-011-191200-
...WEST CENTRAL VALLEYS...

CITY           SKY/WX    TMP DP  RH WIND       PRES   REMARKS
GRAND JUNCTION PTCLDY    40  15  36 S8        30.02F
MONTROSE       CLEAR     30  13  49 S8        30.10R WCI  22
EAGLE          CLEAR     24  18  77 CALM      30.19S
RIFLE          PTCLDY    31  21  66 CALM      30.09S
DELTA          NOT AVBL
NUCLA          FAIR      34   3  27 E6        30.10S WCI  29
$$

COZ017>023-064>068-191200-
...SOUTHWEST COLORADO...

CITY           SKY/WX    TMP DP  RH WIND       PRES   REMARKS
DURANGO        CLEAR     24   0  35 CALM      30.17S
CORTEZ         CLEAR     51   1  13 VRB3G17   30.09R
PAGOSA SPRINGS FAIR      29   9  42 CALM      30.23R
TELLURIDE      CLEAR     41   1  18 SE8       30.20S
WOLF CREEK PAS CLEAR     25   5  42 S26G39    30.32S WCI   9
$$

COZ009-010-012-014-032>034-037-058>063-191200-
...CENTRAL COLORADO...

CITY           SKY/WX    TMP DP  RH WIND       PRES   REMARKS
ASPEN          CLEAR     35   9  33 S8        30.13S WCI  29
BUENA VISTA    FAIR      19   3  49 CALM      30.27F
COPPER MTN     NOT AVBL
BERTHOUD PASS  FAIR      23  12  63 W15G29    30.28R WCI  10
COTTONWOOD PAS CLEAR     32   1  27 CALM      30.27F
GUNNISON       CLEAR     23  11  60 NE6       30.20F WCI  16
KREMMLING      CLEAR     23  14  68 CALM      30.21R
LEADVILLE      CLEAR     18   5  57 NE6       30.25S WCI  10
MONARCH PASS   CLEAR     27  -4  26 S21       30.40F WCI  13
SALIDA         FAIR      27   5  39 W5        30.35S WCI  21
SUNLIGHT       CLEAR     27   1  33 SE7       30.26S WCI  19
WILKERSON PASS MOCLDY    19  -2  38 SW9       30.29S WCI   9
$$

COZ069>075-191200-
...SAN LUIS VALLEY/SANGRE DE CRISTO MOUNTAINS...

CITY           SKY/WX    TMP DP  RH WIND       PRES   REMARKS
ALAMOSA        CLEAR     25  10  53 SE8       30.23R WCI  16
DEL NORTE      FAIR      23  -2  33 W7        30.24S WCI  15
LA VETA PASS   CLEAR     28   5  37 S16G31    30.38S WCI  17
SAGUACHE       NOT AVBL
$$

COZ035-036-038>040-191200-
...NORTHERN COLORADO FRONT RANGE...

CITY           SKY/WX    TMP DP  RH WIND       PRES   REMARKS
DENVER INTL AP PTCLDY    31  15  52 S14       30.25S WCI  21
DMNS CITY PARK NOT AVBL
AURORA         PTCLDY    34  14  43 S10       30.26S WCI  26
FRONT RANGE AP FAIR      32  17  52 S10       30.27S WCI  24
ERIE MUNI ARPT FAIR      26  19  73 CALM      30.31R
BOULDER MUN AP FAIR      34  18  51 CALM      30.25R
CENTENNIAL     PTCLDY    33  15  47 SE10      30.25S WCI  25
BROOMFIELD     CLEAR     36  12  38 NE3       30.25S
LOVELAND       CLEAR     29  18  63 N5        30.27S WCI  24
LONGMONT       FAIR      32  18  55 N5        30.27S WCI  28
$$

COZ041-046-047-076>085-087-088-191200-
...PIKES PEAK/PALMER DIVIDE AND SOUTHERN FOOTHILLS...

CITY           SKY/WX    TMP DP  RH WIND       PRES   REMARKS
COLO. SPRINGS  PTCLDY    35  14  42 SE5       30.29S WCI  31
A. F. ACADEMY  CLEAR     31  12  44 SE7       30.27R WCI  25
SCHRIEVER AFB  NOT AVBL
CHEYENNE MTN   NOT AVBL
ELLICOTT         N/A    N/A N/A N/A SE7       30.27S
FALCON         FAIR      28  12  50 CALM      30.29S
FORT CARSON    PTCLDY    37  12  36 CALM      30.27S
LIMON          CLEAR     18  14  84 CALM      30.30S
MONUMENT HILL  CLEAR     23  12  63 SE8       30.28S WCI  14
CANON CITY     FAIR      34  12  40 W8        30.26F WCI  27
WALSENBURG     FAIR      30   5  34 W3        30.25S
TRINIDAD       CLEAR     31   8  38 VRB3      30.25S
$$

COZ042>045-048>051-090-091-191200-
...NORTHEAST COLORADO...

CITY           SKY/WX    TMP DP  RH WIND       PRES   REMARKS
GREELEY ARPT   CLEAR     25  15  66 CALM      30.29S
AKRON          CLEAR     33  20  58 S13       30.29S WCI  24
BURLINGTON     CLEAR     25  21  85 S10       30.33S WCI  15
WRAY           FAIR      34  28  80 SE6       30.35R WCI  29
YUMA           NOT AVBL
STERLING       FAIR      27  21  80 CALM      30.31R
HOLYOKE        FAIR      30  27  86 S12       30.35R WCI  21
FORT MORGAN    FAIR      31  17  56 E3        30.31R
$$

COZ086-089-092>099-191200-
...SOUTHEAST COLORADO...

CITY           SKY/WX    TMP DP  RH WIND       PRES   REMARKS
PUEBLO         CLEAR     30  11  45 NE8       30.26S WCI  22
LA JUNTA       CLEAR     33  18  53 E9        30.28S WCI  25
LAMAR          CLEAR     25  16  68 E5        30.30S WCI  19
SPRINGFIELD      N/A     27  14  58 S8        30.32R WCI  19
$$





USA.gov is the U.S. government's official web portal to all federal, state and local government web resources and services.